Regional Weather Roundup
Issued by NWS

Home | Current Version | Previous Version | Text Only | Print | Product List | Glossary On
Versions: 1 2 3 4 5 6 7 8 9 10 11 12 13 14 15 16 17 18 19 20 21 22 23 24 25 26 27 28 29 30 31 32 33 34 35 36 37 38 39 40 41 42 43 44 45 46 47 48 49 50
000
ASCA42 TJSJ 282311
RWRPR
PUERTO RICO/U.S. VIRGIN ISLANDS HOURLY WEATHER ROUNDUP
NATIONAL WEATHER SERVICE SAN JUAN PR
700 PM AST THU AUG 28 2014

PRZ001-004-290000-
PUERTO RICO

CITY           SKY/WX    TMP DP  RH WIND       PRES   REMARKS
SAN JUAN LMM   PTCLDY    82  75  78 E13       29.98R
PONCE          MOCLDY    82  75  78 E6        29.93R
AGUADILLA      PTCLDY    82  73  74 E16G22    29.98R
CEIBA          PTCLDY    82  73  74 E12       30.00R
$$

PRZ006-007-290000-
U.S. VIRGIN ISLANDS

CITY           SKY/WX    TMP DP  RH WIND       PRES   REMARKS
CHRISTIANSTED  PTCLDY    82  73  74 E7        29.98S
$$

HOURLY WEATHER ROUNDUP FOR THE NEWS MEDIA

CITY           SKY/WX    TMP DP  RH WIND       PRES   REMARKS
MIAMI          MOCLDY    85  76  74 SE13      29.96R HX  94
ORLANDO        MOSUNNY   87  71  58 E12       29.96R HX  93
NEW YORK       PTCLDY    79  46  31 N16       29.93R
NEWARK         PTCLDY    78  48  34 NW17G23   29.93R
CHICAGO        CLOUDY    72  58  61 NE9       30.06S
HARTFORD       PTCLDY    74  53  48 NW6       29.85R
BOSTON         PTCLDY    75  45  34 NW15G25   29.87R
DALLAS         MOSUNNY   95  61  32 SE14      29.83F HX  95
PHILADELPHIA   PTCLDY    78  50  37 NW13      29.98R


USA.gov is the U.S. government's official web portal to all federal, state and local government web resources and services.